Theta_e
306 306 307 311 314 317 321 323 325 331 338 340 340 337 334 334 333 331 331 330 332 332 330 327 325 331 336 332 329 330 331 331 331 331 330 328 328 327 326 323 323 324 323
306 305 305 306 310 313 315 320 324 325 330 339 341 340 335 336 337 335 333 333 335 335 334 334 332 329 332 334 331 332 333 333 332 331 331 332 328 326 321 320 321 321 321
306 305 304 303 305 309 312 313 318 322 326 332 341 341 339 339 340 336 337 336 336 336 336 336 335 335 334 332 332 331 332 333 333 333 332 331 330 324 320 320 319 319 320
306 307 306 303 303 304 307 309 313 318 323 328 335 338 339 339 340 339 338 337 336 337 338 336 336 336 335 335 333 331 332 333 332 332 331 331 327 325 325 323 322 322 325
306 306 307 307 303 302 303 304 307 312 317 322 327 330 334 338 336 338 339 339 339 340 338 338 338 337 337 336 335 333 331 334 334 333 331 330 329 329 330 328 324 326 328
305 305 306 307 308 305 303 302 303 305 308 316 319 322 324 331 332 338 339 339 338 338 339 340 339 339 339 338 337 337 336 332 332 335 333 331 329 328 329 330 327 325 320
305 305 305 305 306 308 308 306 303 302 302 304 310 312 316 317 321 322 324 332 329 333 331 339 335 339 338 339 339 338 338 337 333 333 335 333 332 331 330 329 327 326 326
305 305 305 304 304 304 304 308 305 303 302 302 302 303 305 308 308 311 313 316 319 320 329 330 325 330 331 335 337 338 339 339 339 337 334 335 335 333 332 332 332 332 331
306 305 305 305 304 304 303 302 301 300 300 301 302 302 303 303 303 302 303 307 314 311 317 324 328 324 327 327 326 333 335 334 337 339 338 335 336 336 335 334 333 332 332
306 306 305 305 305 304 303 302 302 301 300 302 301 300 303 303 303 303 302 302 304 309 307 311 317 322 320 324 326 325 326 322 322 329 330 338 338 337 337 336 335 334 334
306 306 305 305 305 304 304 301 301 301 301 301 301 301 300 299 301 302 302 303 300 302 303 305 306 309 313 316 318 323 323 326 321 320 321 318 324 336 337 337 337 336 336
306 305 306 305 305 303 303 301 301 300 300 301 301 301 300 299 299 299 300 300 302 302 301 301 302 302 303 304 308 313 317 317 320 321 320 322 318 318 329 331 336 337 337
304 304 304 304 303 301 301 301 301 300 300 301 301 301 300 299 299 299 299 299 299 299 302 301 300 301 301 302 302 304 307 309 312 317 318 321 322 319 319 319 325 329 334
303 302 301 301 300 300 301 301 301 300 300 301 301 300 300 298 296 297 297 297 296 296 297 299 301 301 301 301 301 302 302 303 305 308 309 311 315 316 317 318 318 321 324
301 301 300 300 300 300 301 301 300 300 300 300 299 299 297 295 295 296 296 296 296 296 296 295 297 298 299 299 300 301 301 301 301 300 301 304 304 306 308 310 313 316 318
301 300 300 300 300 301 301 301 300 299 299 298 297 296 295 296 296 296 296 296 296 296 295 295 295 295 296 296 297 297 298 301 302 302 301 300 301 303 305 308 310 309 309
300 300 300 300 300 301 301 300 298 298 297 297 297 297 297 297 297 296 296 295 295 295 295 295 294 294 294 294 295 296 296 297 297 298 301 302 302 301 301 304 305 306 308
299 299 299 299 300 300 298 297 297 297 297 297 297 296 296 296 296 296 295 295 295 294 294 294 294 294 294 294 294 295 295 295 296 296 297 298 300 302 301 301 303 305 307
299 299 297 299 300 298 297 297 296 296 296 296 296 296 296 296 295 295 295 294 294 294 293 293 293 294 294 294 294 294 294 295 295 295 295 295 296 297 298 300 301 302 305
299 299 297 299 298 298 298 298 297 296 294 293 293 294 295 295 295 294 294 293 293 293 292 293 292 293 293 293 292 292 292 292 293 294 293 293 293 295 296 296 297 299 301
299 299 297 297 298 298 298 298 297 295 293 293 293 293 292 293 293 293 293 292 292 291 291 291 290 290 291 292 292 291 290 290 291 291 292 291 291 290 290 292 293 295 297
299 299 298 297 298 298 297 296 294 293 292 293 293 292 291 292 292 292 292 291 290 290 289 289 289 289 289 289 290 290 289 290 290 290 290 290 290 290 291 291 292 293 294
299 298 297 297 296 295 293 291 291 291 292 292 292 291 291 291 290 289 290 289 289 289 289 289 289 288 289 288 289 289 289 289 289 289 290 290 290 290 290 292 292 293 293
298 297 296 294 293 292 291 290 291 291 292 292 291 290 290 290 289 289 289 288 288 288 288 288 288 288 288 288 288 288 289 289 289 289 289 289 289 289 289 290 291 291 292
297 296 295 294 294 293 292 290 291 292 292 291 291 289 289 289 289 288 288 288 288 288 287 288 288 288 288 288 288 289 289 289 289 289 289 289 289 290 290 290 290 289 290
296 295 295 295 294 294 293 291 291 291 291 290 290 289 289 289 288 288 288 288 287 287 287 288 287 288 288 288 288 288 288 288 288 288 288 289 289 288 289 289 289 290 290
Wind_Speed
29 28 29 29 27 26 25 24 18 10 18 31 39 41 41 36 35 34 33 33 31 30 33 36 39 35 35 35 32 30 30 30 29 26 29 30 30 31 31 31 31 29 27
34 34 32 32 30 28 27 26 24 19 14 23 36 38 46 41 37 36 36 35 33 33 33 35 38 41 40 38 37 36 36 36 33 33 33 34 35 38 35 34 34 32 30
31 32 34 32 31 30 28 29 27 25 22 17 30 38 28 41 41 42 36 37 37 36 37 39 38 39 41 42 42 42 42 42 38 39 33 15 24 27 32 32 33 33 31
25 25 29 33 32 29 27 26 28 26 25 23 12 23 29 27 37 42 39 42 41 41 39 42 43 41 41 45 46 46 46 46 47 44 45 45 34 15 13 21 23 24 25
22 21 23 24 30 31 30 29 28 27 25 25 22 10 11 23 16 32 33 35 38 36 45 44 45 48 46 45 45 45 50 49 49 51 48 48 48 48 44 34 37 28 25
20 19 18 18 20 27 31 33 32 31 30 25 27 19 11 10 6 18 23 31 32 38 31 40 46 52 51 52 49 46 46 52 54 52 52 51 49 51 51 50 50 46 42
15 22 26 25 24 23 25 31 33 34 33 31 28 28 24 21 14 12 9 14 13 22 14 22 21 41 40 56 53 51 48 47 52 54 57 55 54 51 44 44 47 47 46
9 12 18 20 24 29 28 24 28 28 29 30 30 28 29 29 27 25 20 18 15 17 29 30 24 25 24 25 44 54 47 46 47 53 56 58 59 54 54 51 40 42 44
10 8 11 13 19 25 30 31 29 28 27 27 26 25 26 26 28 29 27 26 22 26 19 14 35 19 24 35 12 18 22 27 43 51 51 58 57 58 53 49 48 44 38
13 10 8 11 15 18 21 26 30 34 29 31 30 26 23 22 23 24 27 29 27 23 26 22 22 22 28 31 40 55 29 29 27 12 24 55 58 57 54 51 49 48 48
9 8 7 9 13 17 18 23 28 33 30 30 29 27 28 25 24 23 23 23 22 25 23 26 27 28 27 26 29 36 43 45 55 42 29 36 28 42 55 54 51 49 48
3 5 7 7 12 17 18 20 26 30 26 26 26 28 28 29 25 25 25 24 22 20 22 24 24 24 24 25 25 21 28 34 39 48 50 39 51 38 13 22 45 48 48
9 9 9 7 10 13 17 21 26 30 22 22 22 27 30 33 30 28 26 27 29 27 20 18 20 21 22 23 25 27 25 25 25 28 31 42 54 54 47 35 12 6 21
12 10 10 9 12 15 15 18 24 27 23 20 22 27 30 29 27 26 28 29 30 29 26 24 22 20 18 20 17 19 21 26 26 26 24 23 24 26 30 31 37 38 27
7 6 6 9 13 15 13 16 18 22 25 24 25 27 27 25 24 25 28 29 28 28 28 26 22 22 23 23 24 20 18 17 18 17 18 19 16 15 18 19 23 29 32
4 2 6 10 13 12 15 19 21 21 21 21 23 24 23 23 25 27 28 28 29 29 29 28 27 24 22 23 24 24 23 21 22 20 15 13 14 14 14 14 11 14 18
3 4 8 11 10 13 17 20 18 17 18 20 20 21 22 24 25 28 30 30 31 32 33 30 27 25 24 22 24 26 24 22 20 20 21 20 17 15 14 14 17 17 16
2 4 8 8 9 12 13 12 14 16 18 19 21 23 23 24 26 28 29 31 34 36 35 32 29 27 23 22 22 23 24 24 23 22 20 19 22 24 22 18 17 19 21
2 3 6 6 8 11 13 14 16 18 20 21 20 21 23 26 29 30 31 33 36 36 35 32 31 29 28 24 22 24 26 26 26 25 23 22 22 22 24 28 26 23 20
3 2 2 4 9 12 16 18 20 23 23 21 23 24 22 24 26 29 33 35 33 31 32 32 30 29 29 28 28 27 28 29 29 28 29 25 23 23 21 23 26 31 29
4 1 2 5 8 11 15 18 20 22 19 19 20 21 23 24 23 28 30 32 32 32 32 32 32 30 29 30 29 27 27 28 30 30 30 29 28 27 28 26 26 26 28
7 4 5 6 9 13 17 20 22 19 18 19 21 23 22 23 27 29 31 31 32 34 35 35 35 34 33 33 32 30 25 25 29 32 32 32 31 30 29 29 27 25 26
8 6 7 8 11 14 17 20 19 18 17 19 21 24 23 24 27 30 30 33 33 33 35 36 37 39 37 37 37 33 30 29 30 31 31 31 31 32 31 29 28 23 24
10 8 7 7 9 12 16 16 17 17 17 21 24 22 24 25 28 27 31 31 32 33 35 36 37 38 38 38 35 33 33 32 33 34 35 36 35 33 32 31 27 25 20
9 7 6 7 10 14 18 17 16 16 20 23 24 26 24 27 29 31 31 31 30 27 33 33 34 36 38 36 32 31 33 32 32 34 35 36 33 30 29 28 27 25 23
8 7 7 9 11 15 19 18 17 19 22 24 26 26 25 28 33 33 35 32 33 31 30 29 28 32 31 31 30 31 32 32 32 34 34 34 31 30 30 28 27 24 22
Wind_Direction
14 13 11 7 7 7 9 9 355 351 246 235 240 236 230 235 233 237 239 236 235 235 231 234 232 230 233 237 236 236 237 239 241 244 251 254 255 255 256 257 256 257 259
22 21 22 18 13 11 12 11 6 353 324 250 232 242 236 234 242 237 239 239 239 240 237 239 237 235 234 234 234 236 239 240 239 237 246 254 259 255 252 253 255 259 261
18 22 21 22 24 21 18 18 10 359 351 324 240 233 242 236 232 232 232 239 241 242 241 242 245 243 242 239 235 235 237 241 241 241 236 236 241 259 261 257 258 260 263
13 16 22 23 22 31 29 30 24 9 357 350 297 246 248 240 238 238 244 239 241 243 245 247 249 250 246 245 243 240 237 238 242 242 244 244 247 251 266 263 260 253 250
352 349 4 21 28 30 37 37 38 29 6 3 355 314 276 243 254 235 242 247 247 249 249 247 252 253 250 250 249 245 243 241 241 244 243 243 245 247 250 264 256 246 244
19 15 11 3 18 27 31 37 39 39 35 15 10 11 11 305 294 244 238 244 247 245 247 242 248 251 253 252 251 249 248 246 246 245 247 246 242 241 243 247 256 260 260
24 34 37 29 16 17 16 25 32 35 37 39 27 19 14 24 11 14 355 258 270 244 282 234 257 236 246 253 252 250 249 251 250 250 251 253 251 250 249 253 258 263 268
350 19 30 40 37 30 19 8 22 26 30 33 40 35 28 21 21 17 17 26 10 357 260 259 301 293 319 252 245 247 253 258 258 256 252 252 255 253 252 251 254 260 265
304 321 5 16 27 30 30 24 16 17 18 24 27 32 36 28 21 22 24 17 10 3 7 274 260 280 276 298 358 242 238 253 261 262 258 256 256 256 256 256 256 251 255
284 292 325 2 16 23 26 22 15 13 16 17 13 16 21 20 19 15 16 19 14 352 1 351 340 309 307 287 271 289 309 336 338 295 290 258 256 255 258 258 257 257 258
287 285 318 351 11 20 18 18 13 9 9 11 7 11 16 10 8 4 8 16 10 10 1 356 356 347 331 325 309 290 287 274 289 311 334 349 323 247 254 254 255 255 256
280 308 334 347 360 7 10 9 9 2 2 3 3 7 9 10 9 5 0 359 359 7 5 358 358 351 350 347 345 327 308 306 297 296 300 324 306 331 314 256 251 256 258
96 78 56 17 360 3 7 358 345 348 0 359 359 360 3 1 1 1 358 356 353 352 350 350 356 354 348 353 347 346 337 328 319 301 298 280 295 307 303 321 335 273 247
82 63 47 32 16 8 354 337 338 348 349 353 351 352 354 354 355 354 354 354 355 354 351 344 339 337 345 341 341 337 335 339 339 332 319 306 296 289 298 287 299 305 309
78 56 24 355 344 342 340 341 342 339 335 334 340 346 347 352 355 356 356 354 352 351 349 346 342 337 330 329 326 322 326 324 326 332 328 324 319 316 316 323 322 300 296
105 357 332 328 331 336 337 336 337 337 336 337 341 345 350 354 355 355 353 349 348 348 346 342 338 334 330 325 322 322 319 309 306 310 314 315 316 304 295 301 299 299 307
158 308 317 318 325 332 332 328 331 335 340 343 348 351 351 352 352 350 347 347 345 342 341 337 335 332 331 325 317 314 316 317 314 309 303 303 301 298 284 279 283 282 278
241 296 304 302 317 330 334 330 326 334 337 340 343 348 348 346 344 342 341 339 338 337 337 335 335 333 331 327 322 317 315 314 313 312 311 302 292 290 290 287 269 265 270
220 281 290 293 316 327 341 343 339 335 330 330 334 337 337 337 338 338 335 333 332 332 333 334 333 332 331 333 329 325 321 317 314 314 311 309 304 294 288 283 280 270 262
200 291 265 294 321 332 336 336 336 336 337 340 342 342 339 335 332 329 329 329 331 330 331 331 333 331 329 330 333 335 331 322 317 313 314 313 314 307 295 291 284 280 275
198 283 311 329 317 318 319 321 325 330 328 331 333 337 333 332 328 326 330 333 336 335 334 332 331 331 330 328 331 341 332 327 320 317 316 314 312 309 307 301 295 288 283
187 250 300 301 295 302 311 317 322 326 332 338 338 336 338 335 334 333 333 336 336 335 334 334 332 331 331 329 329 333 328 321 315 314 314 312 312 310 306 304 300 291 284
215 252 274 272 287 306 316 321 328 333 340 339 336 332 333 332 334 333 334 334 335 334 333 334 330 328 329 330 330 332 326 321 317 313 312 311 311 308 306 304 303 296 286
227 247 271 294 327 338 345 346 351 349 343 335 333 331 329 330 332 334 335 336 336 333 332 329 326 325 326 326 329 328 325 323 320 319 317 314 312 311 311 310 311 307 293
232 263 279 312 336 345 353 356 354 348 333 328 327 327 330 332 333 334 335 335 334 329 327 325 324 324 322 323 322 321 320 318 314 311 308 309 308 306 305 304 306 306 304
242 263 294 318 334 345 348 346 346 339 335 335 337 337 334 335 337 336 333 333 334 331 331 331 327 324 321 321 320 317 315 314 312 309 307 309 311 311 316 315 313 309 306